CDT,Max TemperatureF,Mean TemperatureF,Min TemperatureF,Max Dew PointF,MeanDew PointF,Min DewpointF,Max Humidity, Mean Humidity, Min Humidity, Max Sea Level PressureIn, Mean Sea Level PressureIn, Min Sea Level PressureIn, Max VisibilityMiles, Mean VisibilityMiles, Min VisibilityMiles, Max Wind SpeedMPH, Mean Wind SpeedMPH, Max Gust SpeedMPH,PrecipitationIn, CloudCover, Events, WindDirDegrees
2012-10-1,70,58,44,54,42,33,90,57,33,30.08,30.03,29.94,10,10,10,23,10,31,0.03,4,Rain,337
2012-10-2,74,54,34,36,30,23,85,46,15,30.06,29.96,29.86,10,10,10,9,6,9,0.03,0,,230
2012-10-3,83,64,45,44,38,30,65,39,21,30.04,29.83,29.72,10,10,10,24,11,34,0.00,0,,183
2012-10-4,56,48,39,40,32,28,78,55,33,30.34,30.24,30.05,10,10,10,25,16,36,0.00,2,Rain-Thunderstorm,349
2012-10-5,51,42,33,30,26,22,82,59,32,30.37,30.32,30.27,10,10,10,13,5,22,0.00,4,,331
2012-10-6,45,36,27,26,20,16,86,52,32,30.40,30.34,30.30,10,10,10,14,7,18,0.00,3,,317
2012-10-7,55,40,25,32,27,22,95,65,28,30.31,30.17,30.01,10,10,7,18,7,28,0.00,0,,246
2012-10-8,75,54,34,34,27,18,89,48,12,30.01,29.88,29.78,10,10,7,22,10,34,0.00,0,,229
2012-10-9,57,45,33,41,28,19,76,50,24,30.17,29.98,29.82,10,10,7,28,10,37,0.00,1,,346
2012-10-10,66,46,28,29,25,22,79,47,22,30.24,30.13,30.02,10,10,10,17,8,32,0.00,0,,228
2012-10-11,60,50,41,33,29,26,63,47,34,30.33,30.10,29.97,10,10,10,26,11,36,0.00,1,,42
2012-10-12,52,42,33,45,28,19,78,54,34,30.34,30.21,29.98,10,10,10,18,11,22,0.00,6,,119
2012-10-13,75,62,50,60,55,46,100,83,54,29.91,29.73,29.60,10,9,2,20,11,25,0.70,4,Rain-Thunderstorm,203
2012-10-14,72,60,43,45,39,35,77,50,26,30.01,29.92,29.68,10,10,10,21,14,28,0.00,1,Thunderstorm,338
2012-10-15,80,61,42,44,39,35,78,50,21,30.01,29.89,29.73,10,10,10,14,6,18,0.00,0,,219
2012-10-16,79,64,49,45,41,35,81,45,21,29.72,29.57,29.41,10,10,10,20,11,23,0.00,0,,247
2012-10-17,69,58,47,49,31,14,82,40,17,29.70,29.57,29.38,10,10,7,39,20,48,0.01,2,Rain,301
2012-10-18,51,48,45,36,25,18,68,40,31,29.76,29.69,29.63,10,9,5,45,27,59,0.00,5,Rain,309
2012-10-19,57,48,38,35,33,32,80,57,41,29.86,29.81,29.76,10,10,10,36,22,45,0.00,4,,329
2012-10-20,73,54,34,39,34,27,99,60,21,29.80,29.72,29.65,10,10,5,17,7,22,0.00,0,,152
2012-10-21,79,60,40,57,45,37,89,62,37,29.80,29.72,29.67,10,10,10,16,5,23,0.00,1,,114
2012-10-22,58,52,47,52,50,43,100,94,59,29.86,29.82,29.77,10,3,0,18,13,24,0.01,8,Fog-Rain,357
2012-10-23,64,54,44,60,53,45,100,96,72,29.80,29.73,29.67,10,2,0,10,2,,0.01,6,Fog,346
2012-10-24,53,50,43,53,49,39,100,98,82,29.82,29.79,29.75,10,3,0,21,12,30,0.09,8,Fog-Rain-Thunderstorm,20
2012-10-25,42,37,32,39,31,24,98,80,66,30.35,30.10,29.77,10,9,2,31,21,44,0.39,8,Rain-Snow-Thunderstorm,344
2012-10-26,41,34,27,24,21,19,77,59,41,30.52,30.44,30.37,10,10,10,18,12,24,0.00,5,,346
2012-10-27,45,34,24,26,23,19,80,63,43,30.39,30.29,30.19,10,10,10,14,7,17,0.00,2,,179
2012-10-28,53,40,27,28,25,23,86,59,32,30.25,30.19,30.12,10,10,10,17,9,24,0.00,3,,164
2012-10-29,62,50,37,31,27,26,68,47,25,30.14,30.08,30.03,10,10,10,15,10,21,0.00,1,,156
2012-10-30,59,46,34,32,29,26,81,56,29,30.04,30.01,29.97,10,10,10,12,8,,0.00,2,,103
2012-10-31,70,52,33,36,32,26,79,54,25,30.06,30.01,29.96,10,10,7,8,2,,0.00,2,,215